GFSFLT2_850_thetae_021.txt.gz
Theta_e
328 328 326 324 323 323 322 326 329 332 332 332 341 340 341 341 341 343 343 347 345 344 345 347 348 348 350 352 352 351 352 353
329 328 327 325 325 322 323 324 328 330 332 335 335 341 341 339 340 342 342 345 347 345 344 345 346 346 349 351 352 352 352 353
328 328 326 325 324 322 322 324 326 329 331 331 336 342 341 340 340 340 342 343 348 347 345 345 347 347 348 351 353 354 353 352
326 327 328 326 325 322 323 323 325 324 327 330 330 339 341 340 339 340 340 345 348 348 347 347 347 349 348 349 351 352 353 352
325 325 327 327 326 324 323 321 323 327 327 327 328 337 337 340 341 340 339 345 348 348 349 348 348 349 349 348 349 351 352 352
326 326 328 330 328 327 324 324 324 323 323 325 335 338 334 337 339 339 340 339 348 348 348 349 349 349 350 350 349 349 350 351
326 327 328 328 330 328 326 324 325 324 324 324 327 338 337 339 339 338 337 338 345 348 347 348 348 348 349 350 350 348 349 350
329 327 327 327 329 331 328 327 327 327 326 327 328 338 338 338 338 337 336 343 344 349 347 346 346 346 348 349 350 348 348 347
327 329 330 327 327 329 331 329 328 327 326 327 327 332 337 340 337 336 336 338 343 344 347 346 346 345 346 346 349 349 347 348
327 331 333 331 330 330 331 332 328 327 327 328 328 331 331 330 331 334 331 339 340 338 340 348 347 346 346 347 348 349 347 347
329 329 329 330 329 332 331 330 333 336 335 336 338 332 330 331 330 330 329 334 334 341 339 342 345 350 347 347 348 348 348 346
327 328 329 329 330 331 336 338 342 341 340 340 338 336 335 339 338 336 332 330 330 336 337 340 343 346 351 351 348 348 347 347
327 326 328 330 328 335 338 338 341 341 342 342 341 340 339 337 335 334 336 333 331 334 333 335 338 345 350 355 352 350 347 349
330 330 332 337 335 336 336 343 343 341 340 340 339 338 336 337 337 332 335 341 334 332 329 329 333 341 348 356 355 352 350 352
332 341 338 340 341 340 346 347 349 349 347 345 349 350 351 353 352 350 347 345 340 334 333 334 336 346 349 355 358 360 356 355
335 335 336 337 334 343 342 342 343 345 346 346 347 349 352 353 354 354 354 355 357 356 358 360 355 354 354 358 358 362 362 362
334 336 334 340 341 340 339 337 339 339 340 343 345 345 347 348 351 354 356 357 357 356 358 359 360 361 362 361 362 362 363 364
336 328 330 331 333 336 335 333 333 336 335 337 339 339 344 345 347 349 351 351 356 359 359 360 360 361 361 360 360 361 361 356
331 326 325 324 326 327 328 328 329 328 325 329 335 337 339 342 345 346 347 349 351 350 358 359 359 359 359 357 356 354 352 351

GFSFLT2_850_thetae_024.txt.gz
Theta_e
326 324 323 322 319 319 318 321 323 325 328 328 333 336 340 342 342 341 340 340 342 343 344 344 345 346 346 347 347 348 349 349
324 325 326 322 320 320 315 320 322 322 327 330 329 334 336 340 342 342 342 341 341 341 342 344 344 345 346 347 347 348 348 349
323 323 325 325 322 318 318 319 321 321 324 323 326 328 334 341 343 343 343 343 342 341 341 342 343 346 346 347 348 348 348 349
321 322 325 325 324 319 322 319 319 322 324 327 325 326 332 337 341 343 344 343 344 344 342 343 345 346 345 346 347 348 348 349
320 320 320 323 324 323 314 316 321 322 322 322 322 326 338 338 339 339 340 340 342 345 343 344 345 346 345 346 346 347 349 350
324 324 322 322 324 323 322 323 322 322 322 323 322 326 328 330 331 340 339 340 340 345 345 345 345 345 346 346 345 346 349 351
320 322 324 325 325 325 323 324 323 324 319 319 320 320 323 327 334 339 339 339 341 345 345 346 346 346 346 346 346 345 348 349
323 325 324 325 325 326 325 325 323 321 321 319 321 322 327 329 329 336 339 339 337 342 345 347 347 347 347 347 346 347 348 348
320 323 324 325 326 326 326 325 324 322 322 321 322 325 328 331 334 336 336 338 339 343 343 346 347 347 347 347 347 348 348 348
320 321 325 324 325 325 324 326 325 324 323 323 324 326 328 330 337 336 334 333 341 343 345 347 347 347 347 348 348 348 349 348
321 324 325 329 327 326 324 325 327 324 325 325 328 328 336 332 329 331 333 334 335 340 345 345 347 347 347 348 349 350 350 348
322 325 327 326 328 328 328 330 339 335 335 334 330 327 329 337 335 333 329 333 333 334 342 347 344 345 347 347 347 347 347 346
322 327 322 324 327 333 333 332 339 338 337 335 336 334 339 337 336 334 334 332 332 330 333 336 343 346 346 345 346 345 345 346
327 328 327 329 333 330 330 340 339 340 338 338 343 347 347 342 335 332 333 331 334 335 331 335 335 337 338 347 344 344 346 348
328 333 326 335 338 344 345 346 346 346 346 345 348 350 347 348 349 348 341 339 337 332 334 331 331 334 337 343 344 347 348 348
329 331 330 327 330 337 341 343 345 346 346 348 351 352 353 351 349 347 349 352 346 339 335 333 332 332 336 333 336 347 350 350
330 329 329 326 327 334 334 339 341 341 343 344 347 349 352 353 353 352 354 358 360 360 356 356 350 333 334 338 347 352 353 352
332 327 325 325 327 330 329 330 334 337 338 340 344 345 347 349 350 350 350 351 353 352 350 356 360 361 353 353 356 357 355 354
328 325 325 325 325 325 327 328 326 329 332 335 338 342 343 342 343 345 347 348 347 345 337 337 333 334 351 362 360 359 360 361

GFSFLT2_850_thetae_030.txt.gz
Theta_e
320 320 320 318 320 316 316 316 316 318 320 322 324 325 333 335 337 338 337 342 344 345 345 345 344 342 342 343 343 344 345 346
321 320 320 318 316 320 312 321 320 318 319 324 325 327 327 332 335 337 337 337 340 342 343 344 344 343 343 344 343 343 343 344
319 321 322 318 317 315 317 314 319 318 320 317 323 325 326 328 334 335 337 338 338 339 340 341 342 343 343 343 344 344 344 344
319 319 321 323 321 314 318 317 312 315 320 319 319 323 324 326 328 331 333 334 338 338 339 341 342 342 342 343 343 343 343 344
316 318 318 319 321 316 319 314 320 319 321 321 318 320 323 324 327 331 332 335 338 338 339 340 340 341 342 342 342 342 343 343
318 319 317 317 318 319 320 322 322 320 319 320 319 320 320 324 326 328 335 332 335 338 339 339 340 341 341 341 342 342 343 343
316 316 317 318 319 319 319 321 322 323 322 321 319 318 320 325 326 330 329 331 331 336 339 340 340 340 341 341 342 342 343 343
316 317 317 318 319 320 320 319 319 321 320 317 320 321 320 322 323 324 326 327 326 329 339 341 340 340 340 341 341 342 342 342
316 316 317 319 319 319 319 319 319 320 320 319 318 318 319 321 324 324 326 326 326 327 329 336 341 342 341 341 341 342 342 342
314 315 319 318 317 320 320 320 319 318 320 320 321 323 325 326 325 326 326 326 326 326 328 330 335 341 342 342 342 343 342 343
315 316 317 317 326 330 330 328 321 321 320 319 321 321 322 324 324 325 327 327 328 328 330 335 338 339 342 342 342 343 344 345
313 317 320 321 330 330 331 333 327 326 321 321 319 320 322 327 325 326 327 327 328 330 334 336 339 340 340 340 341 341 342 342
312 318 318 319 328 332 330 329 332 332 333 322 321 324 327 327 325 326 328 329 333 333 333 335 337 338 338 339 340 339 341 343
312 317 317 324 328 335 330 331 332 332 335 336 323 325 326 328 333 333 332 332 334 332 331 332 337 340 341 342 342 343 345 346
313 314 316 323 329 330 329 331 332 331 335 340 328 329 334 338 341 340 338 336 337 336 337 337 334 340 343 345 346 346 347 347
318 319 322 325 328 328 330 331 333 333 340 345 339 348 351 353 354 354 353 353 351 348 349 349 349 348 345 339 342 344 344 344
315 318 326 327 326 330 329 335 332 338 345 344 349 350 351 350 350 348 348 347 347 347 346 344 342 341 339 339 338 340 347 345
314 317 324 325 325 329 329 330 330 336 341 341 342 342 344 344 344 345 345 345 344 340 338 336 334 334 333 334 333 333 334 334
316 317 322 325 326 328 328 329 331 334 337 339 340 340 339 338 337 336 336 335 335 334 334 335 335 334 334 335 335 335 334 335

GFSFLT2_850_thetae_033.txt.gz
Theta_e
322 323 324 324 327 325 324 322 324 327 328 328 329 331 333 336 338 342 344 346 347 347 346 345 345 345 343 341 341 343 343 344
323 323 324 324 324 323 325 324 325 326 327 329 333 332 332 334 336 338 340 342 345 347 347 346 345 345 345 342 338 338 342 342
324 324 324 322 325 324 325 324 324 324 325 328 332 336 335 334 333 335 337 338 340 342 343 344 346 345 345 345 343 341 339 341
325 325 325 324 325 325 325 327 325 325 325 326 328 330 333 332 332 334 337 336 337 337 341 344 345 345 344 344 344 344 342 341
326 325 322 325 325 325 326 326 328 325 325 327 326 326 328 329 330 328 328 330 333 337 339 339 340 342 343 342 341 342 343 343
327 326 322 324 324 325 326 328 327 327 326 327 327 327 329 328 327 328 328 327 329 332 335 336 338 339 340 341 342 342 343 342
319 318 319 321 321 322 324 327 329 327 328 327 327 328 328 328 329 327 328 325 329 332 331 333 337 338 339 340 341 341 342 342
317 316 318 320 321 321 322 323 323 325 327 327 326 327 328 327 328 327 327 325 330 328 331 330 334 337 339 339 340 341 341 341
316 317 318 320 321 321 322 322 323 324 325 325 326 327 327 326 327 328 326 325 326 326 327 326 326 329 336 339 340 340 341 341
314 315 318 321 321 322 324 323 323 323 324 325 326 327 327 325 326 327 326 326 327 327 326 326 326 327 330 338 340 340 341 341
313 315 317 317 319 327 331 328 332 328 324 324 324 325 328 327 325 325 325 326 326 327 326 327 327 327 331 337 340 340 340 341
313 313 316 321 321 325 333 329 335 336 336 330 325 328 327 326 325 325 325 325 326 326 326 327 328 331 333 336 338 340 341 342
311 313 314 317 322 331 334 330 336 337 337 338 339 330 327 327 328 325 326 325 325 326 326 329 335 334 336 338 339 340 341 342
312 312 312 316 318 321 332 332 332 333 336 338 338 338 338 331 327 327 328 328 328 328 330 332 333 335 337 339 340 340 340 341
313 311 313 315 319 320 327 328 330 334 336 337 337 338 340 333 343 343 338 335 335 333 331 331 334 339 339 340 341 342 343 344
314 312 315 313 314 318 328 329 333 334 336 336 337 341 340 346 348 351 345 343 346 346 341 338 336 336 338 340 340 341 343 344
313 313 313 313 314 318 323 327 329 335 335 335 341 345 347 351 351 349 347 346 344 343 343 343 342 342 341 341 339 339 341 343
312 312 314 315 316 320 327 327 331 334 334 336 341 343 346 345 344 343 341 339 339 338 337 335 335 334 334 334 333 333 333 333
312 310 311 314 317 321 325 331 333 335 335 338 338 339 340 340 339 338 338 338 338 338 338 338 337 336 335 335 335 335 334 334

GFSFLT2_850_thetae_036.txt.gz
Theta_e
326 326 327 328 328 327 327 328 329 329 330 331 333 334 335 334 335 337 345 348 349 350 351 353 354 353 351 346 339 343 345 346
325 326 327 328 327 327 327 329 329 328 330 332 333 333 334 335 336 336 340 346 347 349 350 352 353 354 354 345 340 336 340 343
327 326 327 327 328 328 328 328 329 329 329 331 332 334 334 335 335 336 339 343 346 346 347 349 351 353 354 355 348 344 340 338
328 327 326 327 327 328 328 330 328 329 329 329 330 331 334 333 334 335 336 338 341 343 345 347 349 350 351 353 355 353 344 340
330 329 327 327 327 328 328 329 331 329 328 330 330 331 331 332 333 334 335 338 340 341 341 344 347 350 350 351 352 353 353 347
332 330 329 328 328 328 328 331 329 331 330 329 328 330 330 329 330 332 334 335 336 338 339 340 343 346 349 349 350 352 353 354
329 326 325 329 328 328 329 329 330 330 331 331 330 330 330 330 329 329 331 334 335 338 339 344 344 346 349 350 349 350 352 354
325 323 323 325 326 327 328 329 330 330 331 331 330 329 329 329 329 329 330 329 330 333 341 344 341 343 348 349 348 349 350 350
326 324 323 325 326 327 327 328 329 331 330 330 330 330 329 329 329 329 330 330 331 332 336 339 341 332 336 334 347 348 345 347
323 323 325 326 327 327 326 327 327 328 328 329 329 328 327 328 328 328 328 328 331 331 332 334 337 337 340 346 340 340 342 345
320 322 324 324 323 324 326 328 327 328 328 328 326 326 327 326 327 329 329 330 331 331 331 332 334 335 337 343 348 347 340 340
317 320 323 323 323 322 325 331 329 332 333 336 335 330 329 327 328 329 329 330 330 330 331 332 330 333 336 342 346 343 334 342
314 316 319 320 324 328 329 338 334 334 336 337 340 340 339 338 337 336 335 333 333 334 333 333 330 329 328 339 343 344 352 353
314 315 316 316 317 321 325 324 329 330 330 332 333 334 336 338 341 341 339 333 335 338 334 333 332 330 333 335 340 346 352 354
313 314 315 315 316 318 318 319 321 326 327 330 332 334 335 337 342 344 338 338 343 340 341 333 330 332 335 336 343 348 348 345
314 313 314 313 314 314 315 316 321 322 323 326 330 331 334 340 346 343 346 351 351 353 350 350 338 342 341 338 339 340 341 345
314 315 314 312 312 313 315 314 315 317 323 325 326 331 334 344 348 349 354 355 356 356 354 353 353 353 352 344 343 348 349 355
314 313 313 314 313 313 312 312 318 320 325 325 326 334 341 347 350 353 351 349 348 347 346 344 343 342 342 346 355 354 353 353
313 311 312 312 312 314 316 318 319 321 327 329 334 337 345 348 348 350 350 350 346 344 346 348 344 339 335 334 334 335 347 345